Lid_Strength_Index
3 3 3 3 3 3 4 4 4 3 3 3 3 3 3 3 2 2 2 3 2 2 2 2 2 2 7 9 10 6 3 4 5 5 7 8 9 9 11 11 10 11 11 10 9 10 10
2 3 3 3 3 4 4 4 3 3 3 3 2 3 3 2 2 2 2 2 2 2 2 2 2 4 8 11 7 6 6 6 6 6 7 7 8 8 10 11 11 10 10 10 10 10 11
2 2 2 3 3 3 3 3 3 3 3 3 3 3 3 2 2 2 2 2 2 2 2 2 3 7 8 10 6 6 6 6 6 6 7 6 7 9 9 11 10 11 12 11 12 11 11
1 2 2 2 2 3 3 3 3 3 3 3 2 3 3 2 2 2 3 2 2 3 3 3 4 7 10 7 5 6 6 7 6 6 6 6 6 9 10 10 11 12 12 14 11 11 11
1 1 1 2 2 2 2 3 3 3 3 2 2 3 3 3 2 3 3 3 3 4 4 5 7 8 11 6 8 7 6 8 7 7 7 8 8 10 10 12 13 12 15 14 13 11 12
0 0 1 1 1 2 2 3 3 2 2 2 2 2 3 3 3 3 3 5 3 5 6 8 7 9 9 11 8 8 6 7 9 9 9 9 10 11 12 13 17 16 16 15 14 12 12
-0 0 0 1 1 1 2 2 2 3 2 2 2 3 3 3 4 4 5 7 9 8 8 11 11 11 10 8 7 8 7 8 9 10 12 11 13 15 14 14 14 14 15 15 13 12 13
-0 0 0 0 1 1 2 2 2 3 3 2 2 3 3 4 4 5 5 8 9 7 12 10 10 10 10 9 11 9 7 10 11 13 12 12 15 14 13 13 13 14 15 15 14 12 13
-0 -0 0 0 1 1 1 2 2 2 2 2 3 3 3 5 5 6 7 8 6 6 11 12 11 11 11 9 12 12 9 11 13 14 14 14 14 13 14 14 15 15 15 16 16 13 11
-0 1 -0 0 1 1 1 1 2 2 2 3 4 4 5 5 7 8 8 6 6 7 12 13 13 11 10 10 12 10 9 11 12 15 14 15 14 15 14 15 15 17 13 14 15 14 14
1 0 1 0 1 1 1 2 2 2 3 3 4 4 5 6 8 9 8 6 6 8 19 13 13 9 10 12 12 12 9 11 14 15 14 16 15 15 15 15 14 16 13 13 12 13 13
1 -0 0 0 0 1 1 1 2 2 3 3 4 4 6 6 6 7 6 7 8 14 18 14 13 13 13 13 13 12 12 10 12 15 15 15 13 13 14 13 14 13 12 12 12 13 17
1 -0 0 0 1 0 2 1 1 2 2 3 4 6 7 7 9 6 6 8 15 17 15 13 15 14 14 15 14 13 14 15 15 15 16 15 15 14 14 15 13 12 14 16 17 18 17
1 0 0 -0 1 1 0 1 1 1 2 3 5 7 8 8 7 7 8 11 16 15 14 15 15 15 15 15 15 15 15 15 14 16 16 18 17 16 14 16 16 14 14 17 20 18 17
2 2 1 1 -0 0 0 0 1 2 2 4 6 7 8 8 7 8 10 16 15 14 14 15 16 15 15 16 16 16 15 15 15 15 17 18 18 15 15 14 13 14 14 13 17 16 19
3 2 1 1 1 0 0 0 1 1 2 5 8 9 10 8 8 9 14 15 14 16 15 15 14 15 14 15 17 17 17 15 15 14 14 17 19 16 15 14 12 13 12 16 15 20 21
3 3 2 1 1 1 0 0 -0 1 3 5 8 11 10 9 10 11 15 14 15 15 14 15 14 17 15 15 16 15 15 15 14 15 14 16 18 17 16 16 16 14 14 14 15 16 19
4 3 2 1 1 1 1 -0 -0 1 4 5 9 14 9 10 14 15 15 14 14 15 14 15 16 16 14 16 16 17 17 16 13 14 17 15 17 19 17 15 14 13 14 14 18 18 16
4 4 3 2 2 1 1 0 -0 1 2 7 11 14 9 10 17 16 15 16 15 15 15 15 16 16 16 16 17 17 17 14 13 14 17 15 18 20 17 16 14 15 14 13 14 16 19
4 4 3 3 2 2 1 0 -0 1 1 7 11 15 13 12 14 14 15 15 16 13 14 14 15 15 17 18 18 18 17 15 13 14 14 15 18 19 19 17 17 18 16 15 16 19 18
5 4 3 3 2 2 1 1 -0 0 1 4 9 13 12 16 15 15 14 14 16 16 14 14 16 16 16 19 18 19 17 16 15 14 14 15 20 19 18 17 16 16 16 16 17 17 19
5 4 4 3 2 2 1 1 0 -0 1 4 11 13 12 12 12 14 15 15 15 15 16 16 16 15 15 16 15 17 17 16 16 15 15 15 19 19 20 17 17 18 16 15 16 16 17
4 4 4 3 3 2 2 1 1 0 1 6 8 8 9 12 13 13 13 13 15 14 14 14 14 14 16 15 15 14 14 14 14 16 16 17 18 21 19 19 19 19 16 16 15 15 16
4 4 4 3 3 2 2 2 1 0 1 4 7 7 10 14 13 12 12 13 15 14 14 15 14 14 15 13 14 14 15 15 15 15 14 18 19 20 20 19 18 14 12 12 14 12 14
4 3 3 3 3 2 2 2 1 1 0 2 5 5 7 12 12 13 13 12 13 14 15 16 15 15 13 14 17 18 19 20 21 18 17 16 18 21 22 21 16 14 14 15 16 13 12
3 4 4 3 3 3 3 2 1 1 1 1 5 2 5 10 12 9 12 13 15 15 17 17 15 14 15 16 15 18 18 18 22 22 17 17 17 20 22 22 19 14 12 11 11 16 11
3 4 3 3 3 3 3 2 2 1 1 1 4 2 5 9 9 8 11 13 12 14 15 17 17 17 16 16 17 18 17 23 20 22 23 21 21 22 21 21 17 13 12 11 17 14 12
2 3 2 3 3 3 3 3 2 2 1 2 2 2 3 8 9 8 8 12 13 12 16 15 16 16 17 17 16 16 18 20 20 19 21 21 22 23 20 22 21 14 13 15 12 12 12
-0 0 1 3 3 3 4 3 3 2 1 1 4 2 4 8 11 10 10 11 10 10 13 15 14 15 14 15 15 16 19 22 18 19 19 21 17 18 18 17 13 13 12 11 10 11 13